This is the latest recevied weather packets stored in our database for station/object M0HPP-13. If no packets are shown the sender has not sent any weather packets the latest 10 day(s).
| Time | Temp. | Humidity | Pressure | Rain* | Wind** | Luminosity | Snow |
|---|---|---|---|---|---|---|---|
| 1788262086 | 15.56° C | 80% | 1005.7 hPa | 0 mm | - | 450 W/m² | - |
| 1788261486 | 15.56° C | 81% | 1005.6 hPa | 0 mm | - | 441 W/m² | - |
| 1788260886 | 15.56° C | 83% | 1005.5 hPa | 0 mm | - | 385 W/m² | - |
| 1788260286 | 15° C | 85% | 1005.3 hPa | 0 mm | - | 424 W/m² | - |
| 1788259686 | 14.44° C | 89% | 1005.1 hPa | 0 mm | - | 386 W/m² | - |
| 1788259086 | 13.89° C | 94% | 1004.8 hPa | 0 mm | - | 300 W/m² | - |
| 1788258486 | 14.44° C | 95% | 1004.7 hPa | 0 mm | - | 136 W/m² | - |
| 1788257886 | 14.44° C | 94% | 1004 hPa | 0 mm | - | 133 W/m² | - |
| 1788256088 | 13.89° C | 96% | 1004.2 hPa | 0.76 mm | - | 253 W/m² | - |
| 1788254286 | 12.78° C | 98% | 1004.3 hPa | 0.76 mm | - | 96 W/m² | - |
| 1788253686 | 12.78° C | 98% | 1004.4 hPa | 0.76 mm | - | 120 W/m² | - |
| 1788253086 | 12.78° C | 97% | 1004.7 hPa | 0.51 mm | - | 92 W/m² | - |
| 1788252486 | 13.33° C | 96% | 1004.8 hPa | 0 mm | - | 75 W/m² | - |
| 1788251886 | 12.78° C | 96% | 1004.9 hPa | 0.51 mm | - | 97 W/m² | - |
| 1788251286 | 12.78° C | 98% | 1004.9 hPa | 0.51 mm | - | 108 W/m² | - |
| 1788250686 | 12.22° C | 97% | 1005 hPa | 0.51 mm | - | 64 W/m² | - |
| 1788250086 | 12.22° C | 97% | 1005 hPa | 0.51 mm | - | 55 W/m² | - |
| 1788249486 | 12.22° C | 96% | 1005.2 hPa | 0.51 mm | - | 62 W/m² | - |
| 1788248886 | 12.22° C | 94% | 1005.3 hPa | 0.25 mm | - | 25 W/m² | - |
| 1788248286 | 12.22° C | 93% | 1005.5 hPa | 0 mm | - | 27 W/m² | - |
| 1788247686 | 12.22° C | 93% | 1006.1 hPa | 0 mm | - | 27 W/m² | - |
| 1788247086 | 12.22° C | 93% | 1006.1 hPa | 0 mm | - | 15 W/m² | - |
| 1788246486 | 11.67° C | 93% | 1005.9 hPa | 0 mm | - | 28 W/m² | - |
| 1788245886 | 11.67° C | 94% | 1006 hPa | 0 mm | - | 27 W/m² | - |
| 1788245286 | 11.67° C | 94% | 1006 hPa | 0 mm | - | 17 W/m² | - |
* Rain latest hour (hover to see other rain measurements)
** Current wind speed in m/s (hover to see current wind gust speed)